Miscellaneous Local Product
Issued by NWS North Platte, NE

Home | Current Version | Previous Version | Text Only | Print | Product List | Glossary On
Versions: 1 2 3 4 5 6 7 8 9 10 11 12 13 14 15 16 17 18 19 20 21 22 23 24 25 26 27 28 29 30 31 32 33 34 35 36 37 38 39 40 41 42 43 44 45 46 47 48 49 50
000
AXUS43 KLBF 062010
MISLBF


WESTERN AND NORTH CENTRAL NEBRASKA HOURLY WEATHER ROUNDUP
NATIONAL WEATHER SERVICE NORTH PLATTE NE
300 PM CDT MON JUL 06 2015

***STATIONS NOT REPORTING VARIABLES SUCH AS SKY/WEATHER OR
PRESSURE ARE PROVIDED BY THE NEBRASKA DEPARTMENT OF
ROADS...RAWS...AND APRS NETWORKS...AND ARE NOT UNDER
NATIONAL WEATHER SERVICE QUALITY CONTROL***

...OBSERVATIONS IN AND NEAR THE EASTERN PANHANDLE OF NEBRASKA...

CITY           SKY/WX    TMP DP  RH WIND       PRES   REMARKS
PINE RIDGE     PTSUNNY   69  52  54 N8        30.23S HAZE
CHADRON        CLOUDY    71  53  52 NE8       30.24S HAZE
ALLIANCE       CLOUDY    67  54  63 N12       30.23S HAZE
SIDNEY         CLOUDY    69  52  54 NE16G23   30.25S HAZE
WHITECLAY        N/A     67  52  57 E9          N/A
CRESCENT LAKE    N/A     71  55  58 NE10G17     N/A
BIG SPRINGS      N/A     74  55  50 N9          N/A
$$

...OBSERVATIONS IN NORTH CENTRAL NEBRASKA...

CITY           SKY/WX    TMP DP  RH WIND       PRES   REMARKS
VALENTINE      PTSUNNY   72  52  49 N12G22    30.16R
THEDFORD       MOSUNNY   73  53  48 NE16G23   30.16S HAZE
AINSWORTH      MOSUNNY   74  53  47 N16G29    30.15R
O`NEILL        CLOUDY    75  57  54 N20G26    30.09R HAZE
ORD            PTSUNNY   77  52  41 N20G29    30.06R HAZE
BROKEN BOW     PTSUNNY   74  54  49 N18G30    30.10R HAZE
VALENTINE NWR    N/A     72  54  52 N13G23      N/A
SPRINGVIEW       N/A     73  55  52 NE8G20      N/A
HALSEY           N/A     73  54  51 N9G20       N/A
BREWSTER         N/A     80  58  46 N22         N/A
ROSE             N/A     84  68  58 N21         N/A
NEWPORT          N/A     76  54  45 S9          N/A
SARGENT          N/A     74  53  47 NE7G16      N/A
CHAMBERS         N/A     78  55  45 NW6G13      N/A
EWING            N/A     75  60  60 N7G20       N/A
$$

...OBSERVATIONS IN SOUTHWEST NEBRASKA AND FAR NORTHEAST COLORADO...

CITY           SKY/WX    TMP DP  RH WIND       PRES   REMARKS
WRAY           CLOUDY    74  55  50 NE13G20   30.19S
HOLYOKE        FAIR      75  54  46 N15G22    30.19F HAZE
IMPERIAL       CLOUDY    75  55  49 NE13G22   30.16S
OGALLALA       PTSUNNY   75  52  44 NE16G22   30.18S HAZE
NORTH PLATTE   PTSUNNY   75  54  47 N20G26    30.13S HAZE
MCCOOK         CLOUDY    74  60  61 N20       30.10S HAZE
LEXINGTON        N/A     77  56  48 N17G24    30.08S HAZE
PAXTON           N/A     74  58  56 N12         N/A
GOTHENBURG       N/A     74  52  46 N16         N/A
CALLAWAY         N/A     73  59  60 N13         N/A
$$

...NORTH PLATTE AREA...

CITY           SKY/WX    TMP DP  RH WIND       PRES   REMARKS
AIRPORT        PTSUNNY   75  54  47 N20G26    30.13S HAZE
DOWNTOWN         N/A     73  54  51 N12G20      N/A
HILLCREST        N/A     73  54  51 NE20G26     N/A
$$

...SOME WEATHER OBSERVATIONS FROM AROUND THE REGION...

CITY           SKY/WX    TMP DP  RH WIND       PRES   REMARKS
DENVER         CLOUDY    62  57  83 NE14      30.29F
LARAMIE        CLOUDY    58  51  78 E7        30.34F
CHEYENNE       CLOUDY    57  52  83 NE9       30.33F HAZE
SCOTTSBLUFF    CLOUDY    66  52  60 NE3       30.26S HAZE
RAPID CITY     MOSUNNY   71  54  54 N9        30.23S
PIERRE         PTSUNNY   74  55  51 N16       30.12S
WINNER         FAIR      76  54  46 N20G25    30.12F HAZE
SIOUX FALLS    CLOUDY    73  58  59 N21G26    30.02R SMOKE
OMAHA          CLOUDY    75  71  87 NW8       29.91F
GRAND ISLAND   PTSUNNY   76  61  59 N23G29    30.02S
KANSAS CITY    PTSUNNY   88  76  67 S17       29.82F HX  99
WICHITA        TSTM      88  72  58 S22G29    29.81F HX  94
HAYS           CLOUDY    73  63  68 N17G25    29.98S
LIBERAL        PTSUNNY   84  64  51 N20G26    30.02S
GOODLAND       CLOUDY    68  58  70 N20       30.17R
$$



USA.gov is the U.S. government's official web portal to all federal, state and local government web resources and services.